TimeCST,TemperatureF,Dew PointF,Humidity,Sea Level PressureIn,VisibilityMPH,Wind Direction,Wind SpeedMPH,Gust SpeedMPH,PrecipitationIn,Events,Conditions,WindDirDegrees,DateUTC
12:55 AM,46.0,32.0,58,29.99,10.0,NW,11.5,18.4,N/A,,Overcast,310,2012-11-07 06:55:00
1:55 AM,45.0,30.9,58,30.00,10.0,NW,10.4,-,N/A,,Overcast,310,2012-11-07 07:55:00
2:55 AM,45.0,32.0,60,30.00,10.0,NW,13.8,-,N/A,,Overcast,320,2012-11-07 08:55:00
3:55 AM,44.1,32.0,63,30.01,10.0,NNW,11.5,-,N/A,,Overcast,330,2012-11-07 09:55:00
4:55 AM,39.9,37.0,89,30.04,10.0,NNW,9.2,-,0.00,,Overcast,340,2012-11-07 10:55:00
5:55 AM,39.2,35.6,87,30.04,10.0,NNW,10.4,-,N/A,,Overcast,340,2012-11-07 11:55:00
6:32 AM,39.2,33.8,81,30.05,10.0,North,15.0,20.7,N/A,,Mostly Cloudy,350,2012-11-07 12:32:00
6:55 AM,39.9,34.0,79,30.09,10.0,NNW,9.2,-,N/A,,Overcast,340,2012-11-07 12:55:00
7:55 AM,39.9,34.0,79,30.13,10.0,North,10.4,-,N/A,,Overcast,360,2012-11-07 13:55:00
8:55 AM,42.1,34.0,73,30.14,10.0,North,11.5,-,N/A,,Mostly Cloudy,350,2012-11-07 14:55:00
9:55 AM,44.1,35.1,71,30.16,10.0,NNE,8.1,-,N/A,,Overcast,20,2012-11-07 15:55:00
10:55 AM,46.9,36.0,66,30.18,10.0,NNE,8.1,-,N/A,,Mostly Cloudy,20,2012-11-07 16:55:00
11:55 AM,46.0,35.1,66,30.16,-9999.0,NNE,6.9,-,N/A,,Overcast,30,2012-11-07 17:55:00
12:44 PM,46.4,33.8,62,30.13,10.0,Calm,Calm,-,N/A,,Overcast,0,2012-11-07 18:44:00
12:55 PM,46.0,34.0,63,30.15,10.0,North,3.5,-,N/A,,Overcast,10,2012-11-07 18:55:00
1:55 PM,46.9,33.1,59,30.14,10.0,Calm,Calm,-,N/A,,Unknown,0,2012-11-07 19:55:00
2:55 PM,46.9,34.0,61,30.14,-9999.0,North,-9999.0,-,N/A,,Overcast,0,2012-11-07 20:55:00
3:55 PM,44.1,36.0,73,30.15,10.0,North,-9999.0,-,N/A,,Unknown,0,2012-11-07 21:55:00
4:55 PM,42.1,34.0,73,30.15,10.0,SE,3.5,-,N/A,,Partly Cloudy,130,2012-11-07 22:55:00
5:55 PM,37.0,32.0,82,30.16,10.0,SE,3.5,-,N/A,,Clear,140,2012-11-07 23:55:00
6:55 PM,37.9,32.0,79,30.17,10.0,ESE,4.6,-,N/A,,Clear,120,2012-11-08 00:55:00
7:55 PM,33.1,30.0,89,30.17,10.0,SSE,3.5,-,N/A,,Clear,160,2012-11-08 01:55:00
8:55 PM,32.0,28.9,88,30.18,10.0,SE,6.9,-,N/A,,Clear,140,2012-11-08 02:55:00
9:55 PM,32.0,28.9,88,30.18,10.0,SSE,5.8,-,N/A,,Clear,160,2012-11-08 03:55:00
10:55 PM,30.9,28.0,89,30.18,10.0,SSE,3.5,-,N/A,,Clear,150,2012-11-08 04:55:00
11:55 PM,33.1,28.9,85,30.19,10.0,South,3.5,-,N/A,,Clear,170,2012-11-08 05:55:00